STARLINK-2691 (48647 NORAD) Tracking and Keplerian Element Data

This shows tracking and keplerian element data for the satellite.

Feedback or suggestion? Click here.




ElementValue
Catalog48647
NameSTARLINK-2691
Epoch Orbit1145
Epoch Day215.05972929
Epoch Year2021
RAAN101.7599
Inclination53.0556
Eccentricity0.000215
Argument of Perigee92.8152
Mean Anonmoly267.3083
Mean Motion15.06396959
Decay Rate9.93E-06
L11 48647U 21044K 21215.05972929 .00000993 00000-0 85555-4 0 9997
L22 48647 53.0556 101.7599 0002150 92.8152 267.3083 15.06396959 11455

Live tracking and technical data element details for STARLINK-2691 (NORAD 48647). STARLINK-2691 can be tracked NOW for your location showing map with azimuth and elevation plus other details from your city location.

Track the satellite on the map from your city or location and see movement details for azimuth, elevation, latitude, longitude, range, height, and movement on the map or in text.







IsCatalogInMostPopularTable: catalog: 48647, numindb: 18
Update: records affected: 1



GetName: 48647 STARLINK-2691

Hit Count: updated at: Tue, 03 Aug 2021 22:58:15 GMT